When you browse on this site, cookies collect data to enhance your experience and personalize the content and advertising you see.
Visit our Privacy Policy to learn more. By continuing to use the site, you agree to this use of cookies and data.
  • în România
  • Lista ţărilor
  • Pe 7 zile
  • Temperatura apei
  • Hartă satelitară
  • Meteo pe hartă
  • Widget-uri
  • user-avatar
    Intrare

    Meteo pe oră la Grebocin

    Astăzi, 15 Februarie, Vineri

    Timp Temperatura Precipitaţii Vânt Presiune Umiditate
    00:00 +4°C° 0 mm 2 m/s 754 mmHg 95%
    01:00 +5°C° 0 mm 1 m/s 754 mmHg 95%
    02:00 +5°C° 0 mm 1 m/s 754 mmHg 95%
    03:00 +5°C° 0 mm 1 m/s 754 mmHg 95%
    04:00 +4°C° 0 mm 2 m/s 754 mmHg 95%
    05:00 +4°C° 0 mm 2 m/s 754 mmHg 95%
    06:00 +4°C° 0 mm 2 m/s 754 mmHg 95%
    07:00 +3°C° 0 mm 2 m/s 754 mmHg 95%
    08:00 +4°C° 0 mm 2 m/s 754 mmHg 91%
    09:00 +5°C° 0 mm 2 m/s 754 mmHg 88%
    10:00 +5°C° 0 mm 2 m/s 754 mmHg 84%
    11:00 +6°C° 0 mm 2 m/s 754 mmHg 78%
    12:00 +7°C° 0 mm 2 m/s 754 mmHg 72%
    13:00 +8°C° 0 mm 3 m/s 754 mmHg 65%
    14:00 +8°C° 0 mm 3 m/s 753 mmHg 67%
    15:00 +8°C° 0 mm 3 m/s 753 mmHg 68%
    16:00 +8°C° 0 mm 3 m/s 753 mmHg 70%
    17:00 +5°C° 0 mm 3 m/s 753 mmHg 75%
    18:00 +4°C° 0 mm 3 m/s 753 mmHg 79%
    19:00 +3°C° 0 mm 3 m/s 753 mmHg 84%
    20:00 +4°C° 0 mm 2 m/s 753 mmHg 85%
    21:00 +3°C° 0 mm 2 m/s 753 mmHg 86%
    22:00 +3°C° 0 mm 2 m/s 753 mmHg 87%
    23:00 +3°C° 0 mm 2 m/s 753 mmHg 87%

    Mâine, 16 Februarie, Sâmbătă

    Timp Temperatura Precipitaţii Vânt Presiune Umiditate
    00:00 +2°C° 0 mm 2 m/s 753 mmHg 88%
    01:00 +2°C° 0 mm 2 m/s 753 mmHg 88%
    02:00 +2°C° 0 mm 2 m/s 752 mmHg 88%
    03:00 +2°C° 0 mm 2 m/s 752 mmHg 88%
    04:00 +1°C° 0 mm 2 m/s 752 mmHg 88%
    05:00 +1°C° 0 mm 2 m/s 752 mmHg 88%
    06:00 +1°C° 0 mm 2 m/s 752 mmHg 87%
    07:00 +1°C° 0 mm 2 m/s 752 mmHg 87%
    08:00 +3°C° 0 mm 2 m/s 752 mmHg 80%
    09:00 +4°C° 0 mm 2 m/s 752 mmHg 73%
    10:00 +6°C° 0 mm 2 m/s 752 mmHg 66%
    11:00 +7°C° 0 mm 2 m/s 752 mmHg 61%
    12:00 +9°C° 0 mm 2 m/s 751 mmHg 57%
    13:00 +10°C° 0 mm 2 m/s 751 mmHg 52%
    14:00 +10°C° 0 mm 2 m/s 751 mmHg 54%
    15:00 +11°C° 0 mm 1 m/s 751 mmHg 56%
    16:00 +10°C° 0 mm 1 m/s 750 mmHg 58%
    17:00 +9°C° 0 mm 1 m/s 750 mmHg 62%
    18:00 +7°C° 0 mm 2 m/s 750 mmHg 66%
    19:00 +6°C° 0 mm 2 m/s 750 mmHg 70%
    20:00 +6°C° 0 mm 2 m/s 750 mmHg 73%
    21:00 +5°C° 0 mm 2 m/s 750 mmHg 76%
    22:00 +4°C° 0 mm 3 m/s 750 mmHg 79%
    23:00 +3°C° 0 mm 3 m/s 750 mmHg 78%

    Poimâine, 17 Februarie, Duminică

    Timp Temperatura Precipitaţii Vânt Presiune Umiditate
    00:00 +4°C° 0 mm 2 m/s 750 mmHg 76%
    01:00 +4°C° 0 mm 2 m/s 750 mmHg 74%
    02:00 +2°C° 0 mm 3 m/s 749 mmHg 72%
    03:00 +2°C° 0 mm 3 m/s 749 mmHg 71%
    04:00 +2°C° 0 mm 3 m/s 749 mmHg 69%
    05:00 +2°C° 0 mm 3 m/s 749 mmHg 69%
    06:00 +1°C° 0 mm 3 m/s 749 mmHg 69%
    07:00 +2°C° 0 mm 2 m/s 749 mmHg 69%
    08:00 +3°C° 0 mm 3 m/s 749 mmHg 63%
    09:00 +5°C° 0 mm 3 m/s 749 mmHg 57%
    10:00 +7°C° 0 mm 3 m/s 749 mmHg 51%
    11:00 +9°C° 0 mm 3 m/s 749 mmHg 48%
    12:00 +10°C° 0 mm 3 m/s 749 mmHg 45%
    13:00 +11°C° 0 mm 3 m/s 748 mmHg 42%
    14:00 +11°C° 0 mm 3 m/s 748 mmHg 44%
    15:00 +10°C° 0 mm 2 m/s 748 mmHg 47%
    16:00 +10°C° 0 mm 2 m/s 748 mmHg 50%
    17:00 +9°C° 0 mm 2 m/s 748 mmHg 54%
    18:00 +7°C° 0 mm 2 m/s 748 mmHg 59%
    19:00 +7°C° 0 mm 1 m/s 749 mmHg 64%
    20:00 +6°C° 0 mm 1 m/s 749 mmHg 67%
    21:00 +6°C° 0 mm 1 m/s 749 mmHg 70%
    22:00 +5°C° 0 mm 1 m/s 749 mmHg 73%
    23:00 +5°C° 0 mm 1 m/s 748 mmHg 75%

    18 Februarie, Luni

    Timp Temperatura Precipitaţii Vânt Presiune Umiditate
    00:00 +5°C° 0 mm 1 m/s 748 mmHg 77%
    01:00 +4°C° 0 mm 1 m/s 748 mmHg 79%
    02:00 +4°C° 0 mm 1 m/s 748 mmHg 80%
    03:00 +4°C° 0 mm 1 m/s 748 mmHg 80%
    04:00 +3°C° 0 mm 1 m/s 748 mmHg 80%
    05:00 +3°C° 0 mm 1 m/s 748 mmHg 80%
    06:00 +2°C° 0 mm 0 m/s 748 mmHg 79%
    07:00 +2°C° 0 mm 0 m/s 748 mmHg 78%
    08:00 +3°C° 0 mm 0 m/s 748 mmHg 72%
    09:00 +5°C° 0 mm 0 m/s 748 mmHg 66%
    10:00 +7°C° 0 mm 1 m/s 748 mmHg 60%
    11:00 +8°C° 0 mm 1 m/s 748 mmHg 56%
    12:00 +9°C° 0 mm 1 m/s 748 mmHg 53%
    13:00 +10°C° 0 mm 1 m/s 747 mmHg 50%
    14:00 +10°C° 0 mm 1 m/s 747 mmHg 52%
    15:00 +10°C° 0 mm 1 m/s 747 mmHg 54%
    16:00 +9°C° 0 mm 2 m/s 747 mmHg 56%
    17:00 +7°C° 0 mm 2 m/s 747 mmHg 61%
    18:00 +6°C° 0 mm 2 m/s 747 mmHg 67%
    19:00 +5°C° 0 mm 2 m/s 747 mmHg 72%
    20:00 +5°C° 0 mm 2 m/s 747 mmHg 75%
    21:00 +5°C° 0 mm 1 m/s 747 mmHg 78%
    22:00 +5°C° 0 mm 1 m/s 747 mmHg 82%
    23:00 +4°C° 0 mm 1 m/s 747 mmHg 82%

    19 Februarie, Marţi

    Timp Temperatura Precipitaţii Vânt Presiune Umiditate
    00:00 +4°C° 0 mm 1 m/s 747 mmHg 82%
    01:00 +4°C° 0 mm 1 m/s 746 mmHg 82%
    02:00 +3°C° 0 mm 1 m/s 746 mmHg 81%
    03:00 +3°C° 0 mm 1 m/s 746 mmHg 79%
    04:00 +3°C° 0 mm 1 m/s 746 mmHg 78%
    05:00 +3°C° 0 mm 1 m/s 745 mmHg 75%
    06:00 +3°C° 0 mm 1 m/s 745 mmHg 72%
    07:00 +3°C° 0 mm 1 m/s 745 mmHg 70%
    08:00 +5°C° 0 mm 1 m/s 745 mmHg 62%
    09:00 +6°C° 0 mm 1 m/s 745 mmHg 55%
    10:00 +8°C° 0 mm 1 m/s 745 mmHg 48%
    11:00 +9°C° 0 mm 2 m/s 745 mmHg 46%
    12:00 +10°C° 0 mm 2 m/s 745 mmHg 44%
    13:00 +11°C° 0 mm 3 m/s 744 mmHg 42%
    14:00 +11°C° 0 mm 3 m/s 744 mmHg 45%
    15:00 +11°C° 0 mm 3 m/s 744 mmHg 49%
    16:00 +10°C° 0 mm 2 m/s 743 mmHg 53%
    17:00 +9°C° 0 mm 3 m/s 743 mmHg 59%
    18:00 +8°C° 0 mm 3 m/s 744 mmHg 65%
    19:00 +5°C° 0 mm 4 m/s 744 mmHg 72%
    20:00 +5°C° 0 mm 4 m/s 744 mmHg 73%
    21:00 +5°C° 0 mm 4 m/s 744 mmHg 74%
    22:00 +3°C° 0 mm 5 m/s 744 mmHg 75%
    23:00 +3°C° 0 mm 5 m/s 744 mmHg 75%

    20 Februarie, Miercuri

    Timp Temperatura Precipitaţii Vânt Presiune Umiditate
    00:00 +3°C° 0 mm 5 m/s 744 mmHg 75%
    01:00 +3°C° 0 mm 5 m/s 745 mmHg 74%
    02:00 +4°C° 0 mm 4 m/s 745 mmHg 79%
    03:00 +3°C° 0 mm 4 m/s 745 mmHg 83%
    04:00 +3°C° 0 mm 4 m/s 745 mmHg 88%
    05:00 +3°C° 0 mm 4 m/s 745 mmHg 89%
    06:00 +1°C° 0 mm 4 m/s 745 mmHg 90%
    07:00 +1°C° 0 mm 4 m/s 746 mmHg 91%
    08:00 +2°C° 0 mm 5 m/s 746 mmHg 84%
    09:00 +5°C° 0 mm 5 m/s 746 mmHg 76%
    10:00 +5°C° 0 mm 6 m/s 747 mmHg 69%
    11:00 +7°C° 0 mm 6 m/s 746 mmHg 64%
    12:00 +7°C° 0 mm 6 m/s 746 mmHg 59%
    13:00 +8°C° 0 mm 6 m/s 746 mmHg 54%
    14:00 +8°C° 0 mm 6 m/s 746 mmHg 53%
    15:00 +8°C° 0 mm 5 m/s 746 mmHg 53%
    16:00 +7°C° 0 mm 5 m/s 746 mmHg 53%
    17:00 +6°C° 0 mm 4 m/s 746 mmHg 58%
    18:00 +5°C° 0 mm 4 m/s 747 mmHg 62%
    19:00 +4°C° 0 mm 3 m/s 747 mmHg 66%
    20:00 +4°C° 0 mm 3 m/s 747 mmHg 68%
    21:00 +4°C° 0 mm 3 m/s 747 mmHg 69%
    22:00 +4°C° 0 mm 4 m/s 747 mmHg 71%
    23:00 +4°C° 0 mm 4 m/s 747 mmHg 73%
    Arată mai mult